Theta_e
322 319 318 318 319 315 314 313 317 313 314 312 314 314 311 310 310 310 310 307 305 306
318 319 317 318 316 314 315 316 314 313 310 312 313 311 307 308 310 309 309 306 309 309
318 319 317 315 312 314 314 312 310 310 312 311 308 309 309 310 309 308 306 307 307 307
316 316 314 314 313 311 312 312 311 310 307 307 308 309 310 309 309 307 305 307 308 308
314 313 312 310 309 311 307 306 305 305 308 308 308 309 309 308 308 307 308 308 306 307
310 309 308 308 308 307 306 305 305 308 308 307 307 309 307 308 308 308 308 307 306 306
307 307 306 306 306 306 306 305 305 308 308 307 309 304 304 306 308 309 309 309 309 309
306 306 306 306 305 305 305 305 306 306 306 308 304 304 304 307 308 308 308 309 310 312
307 307 306 305 308 305 305 305 306 305 306 304 305 303 305 307 306 308 308 307 309 310
308 306 306 308 305 304 304 304 305 305 305 302 302 302 301 304 307 308 306 307 307 308
306 305 307 307 308 305 305 305 304 306 305 303 306 302 301 305 308 305 307 307 306 306
307 308 305 307 305 304 305 304 304 305 305 305 306 301 302 308 307 305 306 306 306 305
307 306 305 305 305 305 305 306 307 306 307 307 306 300 301 308 307 303 305 305 305 303
306 304 305 305 306 306 305 306 305 305 305 306 304 304 300 301 309 306 306 304 304 301
Wind_Speed
9 5 4 4 4 4 3 2 4 5 3 4 6 5 4 2 3 5 4 5 4 3
7 7 6 7 4 3 4 6 6 6 6 5 4 4 6 3 5 4 4 5 4 3
6 7 6 6 6 6 7 7 6 6 6 6 6 7 6 6 4 4 4 4 5 4
7 8 9 9 8 7 7 7 7 6 5 6 6 7 8 6 5 4 5 5 4 5
10 8 7 5 6 6 6 6 5 6 5 6 7 7 8 6 5 5 5 4 4 4
7 7 7 7 7 7 7 7 6 5 5 6 7 8 6 5 5 5 5 5 5 5
7 7 7 7 7 7 7 6 6 6 6 5 6 6 7 6 6 6 7 7 8 8
6 7 7 6 6 6 7 6 6 7 6 6 6 6 7 6 6 8 9 7 8 5
7 6 7 7 8 6 7 7 7 7 6 6 3 9 11 10 8 8 5 7 9 6
6 6 7 6 6 7 7 6 7 6 5 6 6 12 11 14 5 6 7 8 8 8
6 6 6 6 6 7 5 6 5 6 5 5 7 13 13 12 7 6 9 9 9 10
6 7 6 6 6 6 5 5 4 4 7 7 7 14 13 7 7 8 9 9 10 10
6 5 6 6 6 4 4 3 4 5 6 8 7 12 12 6 4 6 6 8 8 12
5 6 4 5 4 5 5 5 5 4 5 7 8 9 13 10 5 4 5 5 6 5
Wind_Direction
50 52 46 43 31 20 357 331 18 16 11 353 338 346 329 297 265 250 253 263 255 250
51 59 43 42 31 23 17 17 17 359 350 334 355 307 299 304 274 262 265 263 256 240
57 56 53 36 45 32 21 10 2 359 359 355 343 338 312 281 283 289 279 255 248 240
41 37 44 41 32 23 5 0 1 11 350 345 328 329 312 298 302 294 284 279 265 254
55 52 46 29 20 14 352 353 344 339 331 333 328 315 307 321 344 345 326 322 310 300
45 40 25 12 5 357 347 332 322 332 327 338 324 329 0 8 357 343 333 325 311 294
34 27 23 16 16 0 341 343 350 332 316 326 340 9 353 348 338 337 320 304 292 260
23 34 21 16 2 5 355 349 339 338 347 31 28 7 346 337 342 327 327 334 335 357
48 29 18 3 4 5 344 344 354 8 27 29 16 352 340 330 332 321 327 13 13 61
38 23 8 350 9 352 345 351 357 10 42 12 3 355 339 333 345 36 43 35 33 52
23 9 6 357 2 353 350 4 8 16 14 19 5 355 353 14 44 46 47 48 54 66
27 8 358 355 358 352 6 1 10 8 15 17 1 2 21 42 55 53 54 55 63 75
20 7 360 350 347 338 345 352 23 32 21 24 13 8 24 49 77 68 61 60 65 71
18 351 350 357 2 357 355 19 26 57 36 37 26 18 27 39 89 82 72 73 71 66